Temperature
17 14 14 14 14 15 16 15 14 14 15 15 14 14 14 16 16 16 17 17 18 18 18 19 19 19 19 18 17 17 16 15 14 13 12 11 11 11 11 11 10 10 9 9
14 14 14 15 15 16 16 15 14 14 14 15 14 13 14 15 15 16 16 17 17 18 18 19 19 19 18 18 17 16 16 15 14 14 13 12 11 11 11 10 10 10 9 9
15 15 16 17 17 16 16 15 14 14 13 13 14 14 15 16 15 16 16 17 17 17 17 17 18 17 17 17 16 16 15 15 14 13 12 12 11 10 10 10 10 10 9 9
14 15 16 17 16 16 14 15 15 15 13 12 13 13 14 15 15 15 15 16 16 16 16 17 17 16 16 16 15 15 14 14 13 13 12 12 11 11 11 11 10 10 9 9
15 16 17 17 16 16 15 15 14 14 13 12 12 12 12 14 15 15 15 15 16 16 16 16 16 16 15 15 15 14 14 13 13 12 12 11 11 11 10 10 9 9 9 8
14 16 17 16 16 16 15 14 13 11 11 12 13 12 13 13 15 15 14 15 15 15 15 15 15 15 15 14 14 14 13 13 12 12 11 11 10 10 10 9 9 9 8 8
15 15 16 16 16 15 14 12 12 13 12 13 13 13 13 14 14 14 14 14 15 15 15 14 14 14 14 14 13 13 13 12 12 12 11 11 10 10 9 9 9 8 8 8
15 15 15 15 15 15 14 13 13 14 13 12 12 13 14 14 15 15 15 14 14 14 14 14 13 13 13 13 13 13 12 12 12 11 11 11 10 10 9 9 9 8 8 8
14 15 15 15 15 15 15 13 12 11 12 12 11 12 13 14 13 13 13 14 14 14 13 13 13 13 13 12 12 12 12 11 11 11 10 10 10 9 9 9 8 8 8 7
15 15 15 14 14 14 14 12 11 12 12 12 11 12 13 15 14 13 12 13 14 13 13 13 12 12 12 12 11 11 11 10 10 10 9 9 9 8 8 8 8 7 7 7
16 14 14 14 13 14 13 13 12 10 10 11 11 12 13 14 14 12 12 14 14 13 13 12 12 12 11 11 11 10 10 10 9 9 8 8 8 8 7 7 7 7 6 6
14 11 12 12 13 13 12 12 11 12 11 10 9 11 13 13 13 13 13 14 13 12 12 12 11 11 10 10 10 9 9 9 8 8 7 7 7 7 7 6 6 6 6 6
13 12 12 13 13 13 13 13 12 11 10 9 9 12 12 12 12 13 13 13 12 12 11 11 10 10 10 9 9 8 8 8 7 7 7 6 6 6 6 6 6 5 5 5
12 11 12 13 13 13 13 13 12 11 9 9 9 11 13 12 12 11 12 12 11 11 10 10 10 9 9 8 8 8 7 7 6 6 6 6 5 5 5 5 4 4 4 3
11 11 11 11 12 12 11 11 11 10 10 10 11 11 13 12 11 11 11 11 11 10 10 9 9 8 8 8 7 7 6 6 6 5 5 5 5 4 4 4 3 3 2 2
10 11 11 11 11 11 10 11 11 10 10 10 10 11 11 11 11 10 10 10 10 9 9 8 8 8 7 7 6 6 5 5 5 4 4 4 4 3 3 2 2 2 2 1
8 9 10 9 9 10 9 11 11 11 10 10 10 10 10 10 10 10 10 9 9 9 8 8 7 7 6 6 5 5 5 4 4 4 4 3 3 2 2 1 1 1 1 1
8 8 8 7 9 9 11 11 12 11 11 10 10 10 10 10 10 10 9 9 8 8 7 7 6 6 6 5 4 4 4 4 3 3 3 2 2 1 1 0 0 -0 -0 -0
8 8 7 6 7 8 9 11 12 12 11 10 9 9 9 9 8 9 9 8 8 7 7 6 6 5 5 4 4 4 3 3 3 2 2 1 0 -0 -0 -1 -1 -1 -1 -1
7 7 7 6 7 8 10 11 11 11 9 9 9 8 8 8 5 6 8 7 7 6 6 5 5 4 4 4 3 3 3 2 2 1 0 -0 -0 -1 -1 -1 -1 -1 -1 -1
7 6 6 5 6 7 9 10 11 10 9 9 9 9 8 7 6 7 7 6 6 5 5 4 4 4 3 3 2 2 2 1 0 -0 -0 -1 -1 -1 -1 -2 -2 -2 -2 -2
7 6 5 4 5 7 9 10 9 8 9 9 8 8 7 7 7 6 6 5 5 4 4 3 3 3 3 2 2 1 1 0 -0 -1 -1 -1 -2 -2 -2 -2 -2 -2 -2 -3
7 7 6 6 8 9 10 9 9 9 8 8 7 7 6 6 5 5 5 4 4 4 3 3 2 2 2 2 1 0 -0 -1 -1 -2 -2 -2 -2 -2 -2 -3 -3 -3 -3 -3
7 7 6 6 7 8 8 8 7 7 7 6 6 6 5 5 4 4 4 4 3 3 3 2 2 1 1 1 0 -0 -1 -2 -2 -2 -2 -3 -3 -3 -3 -3 -3 -3 -4 -4
7 7 6 6 6 7 7 7 6 6 6 6 5 5 5 4 4 4 3 3 3 2 2 1 1 1 0 -0 -1 -1 -2 -3 -3 -3 -3 -3 -3 -4 -4 -4 -4 -4 -4 -4
5 6 6 6 6 6 6 6 6 6 5 5 5 4 4 4 3 3 3 2 2 2 1 1 0 -0 -0 -1 -1 -2 -3 -3 -4 -4 -4 -4 -4 -4 -4 -4 -4 -4 -4 -4
Wind_Speed
2 2 4 8 8 7 5 5 9 9 6 5 8 12 14 9 5 7 7 9 10 9 9 7 2 7 9 10 12 14 16 14 11 8 9 10 12 9 8 12 18 20 21 21
4 5 10 7 6 6 5 6 8 8 5 4 7 9 8 4 3 3 4 7 8 10 12 11 7 2 7 10 11 12 14 13 13 13 10 7 6 6 7 8 14 19 20 21
7 8 4 5 4 4 5 6 6 6 8 6 6 8 5 4 4 4 4 5 6 7 9 10 8 3 2 6 9 11 12 13 13 11 6 3 2 2 4 7 8 13 20 21
7 7 5 5 5 4 6 5 4 3 5 6 4 3 7 3 4 3 4 5 6 7 7 7 7 5 2 4 5 7 8 9 10 10 9 11 11 12 11 10 10 10 17 19
6 3 3 5 5 5 6 2 3 2 1 4 2 2 8 4 4 4 3 2 4 6 7 8 8 6 5 3 0 2 4 6 8 9 11 11 13 14 9 7 9 11 10 15
7 4 4 5 1 2 2 5 5 5 4 3 4 4 6 5 7 6 4 2 2 5 6 7 7 7 7 6 4 2 1 4 6 9 10 12 15 13 11 11 11 10 9 10
4 2 2 3 1 2 5 6 5 5 4 5 4 3 8 7 7 8 8 5 1 3 4 5 7 7 7 7 5 3 1 3 4 7 9 12 14 13 15 14 12 12 10 11
2 5 4 3 4 3 2 6 4 2 4 6 6 5 7 6 2 5 6 5 2 2 2 3 4 5 5 6 5 3 3 4 4 6 8 9 11 10 11 13 12 12 12 12
5 5 1 2 1 4 3 3 6 5 1 4 7 8 8 4 6 5 5 4 3 2 0 2 3 4 5 5 5 4 4 5 6 6 7 8 9 10 12 12 11 11 12 11
7 3 2 1 3 2 3 6 5 3 1 4 8 7 5 3 3 4 5 6 5 4 1 1 2 3 4 4 4 5 4 5 5 6 6 7 8 9 10 10 11 12 13 12
4 4 2 1 5 6 5 4 4 4 4 4 5 8 6 5 5 6 7 7 6 5 3 1 2 3 4 5 5 5 5 5 6 7 7 8 8 9 9 9 11 12 12 12
4 4 3 7 4 4 7 7 7 4 5 5 4 8 5 3 3 5 4 4 4 3 2 1 3 4 5 6 6 6 6 6 7 7 7 8 8 8 9 10 11 11 11 11
5 5 2 6 2 0 2 4 6 4 3 5 5 9 3 1 1 0 1 2 2 2 1 3 4 5 6 6 6 6 7 7 7 7 7 8 9 9 10 11 11 10 11 11
5 5 6 7 6 3 5 6 6 6 5 7 10 13 10 9 5 2 1 2 1 1 2 3 4 5 6 6 7 7 8 8 8 8 8 10 11 11 11 11 11 11 11 11
5 5 6 7 7 5 8 12 9 11 10 11 11 14 16 9 4 1 1 2 2 2 4 5 5 6 6 7 8 8 8 9 8 9 10 11 11 11 11 11 11 11 11 11
4 4 2 5 6 7 11 16 13 12 10 11 12 13 6 1 2 1 1 1 2 4 5 6 7 7 8 8 8 8 9 9 9 10 11 12 12 12 11 12 11 11 11 11
6 6 3 4 5 7 10 10 7 6 7 8 8 6 0 1 0 1 1 1 3 5 6 7 7 8 8 9 8 8 9 9 10 11 12 12 13 12 12 12 12 12 12 11
9 7 4 2 2 8 9 3 4 5 4 2 2 1 1 2 4 3 3 2 4 6 6 7 7 7 8 7 8 8 9 10 11 12 12 12 12 13 12 12 12 13 11 11
6 8 5 4 4 9 10 6 1 2 2 1 2 1 2 3 3 4 3 3 4 5 6 6 7 7 8 9 9 9 10 11 11 12 12 13 13 13 13 13 13 12 12 12
4 5 6 5 5 8 8 4 1 2 3 0 2 0 2 2 5 5 5 5 6 7 6 7 7 7 9 9 9 10 12 12 13 13 14 13 13 13 14 14 14 12 11 12
4 4 6 6 7 9 8 5 1 2 4 1 0 2 3 3 6 7 6 6 6 7 8 8 8 8 9 10 10 12 13 13 14 14 14 14 13 13 14 14 12 13 12 12
9 7 7 6 6 9 4 2 3 3 1 0 2 3 5 7 8 7 7 7 8 8 8 8 8 10 10 10 11 14 14 15 14 14 14 14 13 13 13 13 13 12 12 13
8 9 7 10 8 3 2 4 2 2 1 2 3 5 5 6 6 7 7 7 8 9 8 8 9 11 11 10 10 14 16 15 15 14 14 14 14 12 12 13 14 13 11 11
4 3 5 5 6 1 2 3 1 2 3 4 4 5 4 5 7 7 7 7 8 8 9 8 10 13 14 13 11 13 15 15 15 15 15 14 14 13 12 11 10 11 11 12
5 3 3 5 4 1 1 1 1 1 1 2 3 3 4 5 6 6 7 8 8 8 8 8 11 13 16 15 14 13 14 14 15 15 14 14 12 13 13 11 11 12 11 13
5 6 5 6 3 2 4 3 2 2 3 4 4 5 5 4 6 7 8 8 8 10 10 11 12 13 15 15 15 14 13 13 14 14 13 12 12 12 11 12 13 16 17 22
Wind_Direction
31 68 237 229 209 216 231 248 274 269 285 306 273 284 298 316 31 38 22 18 13 357 338 345 267 192 183 187 192 196 199 199 187 187 196 204 217 215 214 217 217 214 214 213
14 265 244 229 216 219 238 276 284 294 327 312 299 304 311 3 57 57 36 23 14 6 6 7 19 135 185 194 198 198 201 197 196 203 202 202 208 215 216 220 221 218 217 217
224 245 247 193 222 261 273 247 261 286 327 352 358 345 342 354 12 18 12 6 12 17 9 4 10 22 187 206 206 207 205 201 201 197 183 181 183 258 223 221 225 220 219 220
244 252 210 214 237 212 272 253 242 303 359 315 24 310 289 277 335 344 348 358 14 15 14 10 8 7 322 249 219 215 207 204 200 187 190 197 211 227 229 225 227 220 219 222
267 232 204 231 239 199 242 304 274 253 174 315 309 196 281 262 242 250 272 328 16 20 25 19 11 5 4 1 278 221 207 208 201 197 203 209 226 237 241 230 231 231 225 225
246 251 222 217 214 204 344 20 42 52 71 322 251 179 278 226 212 207 218 238 34 31 31 23 14 21 18 22 31 46 203 227 211 207 213 219 231 239 245 242 241 241 237 233
311 279 230 143 63 43 63 53 15 355 5 269 289 232 254 250 220 184 184 179 116 45 38 27 25 21 16 16 14 11 323 268 237 220 224 228 235 240 244 248 248 247 248 243
294 292 233 196 187 192 193 135 146 246 267 293 319 255 263 295 158 134 138 139 121 72 33 30 26 23 11 7 4 347 315 287 270 244 242 241 241 243 250 251 249 250 252 251
196 264 341 147 186 164 156 160 169 144 288 283 288 293 311 39 80 107 128 143 169 189 159 26 12 16 11 3 351 322 302 293 286 268 262 260 253 248 252 257 255 256 257 257
164 242 283 29 72 42 144 144 100 130 229 283 295 290 253 213 205 182 184 197 211 221 242 359 359 355 354 350 343 341 320 297 292 286 272 268 265 259 259 264 264 262 262 260
136 179 291 330 205 202 160 174 154 146 166 182 273 276 236 214 205 192 205 213 218 224 225 275 330 341 346 347 348 344 335 326 314 303 291 285 281 277 272 267 267 267 267 265
130 130 248 263 250 205 183 185 154 169 230 197 213 268 269 194 179 173 203 226 236 235 242 303 334 343 345 343 339 336 326 317 304 299 296 290 288 288 283 276 274 272 271 269
131 119 355 338 346 30 206 193 178 158 158 191 204 261 292 114 21 174 216 253 262 281 341 341 339 333 329 325 323 319 313 305 302 302 301 298 297 293 286 281 279 277 274 274
115 147 185 215 216 207 259 249 211 180 204 230 228 252 276 286 292 294 315 302 336 349 338 329 322 316 312 309 307 307 305 302 304 305 303 299 296 292 287 285 283 280 278 277
120 193 230 248 255 251 254 259 240 219 216 229 249 256 271 277 257 199 342 3 25 347 325 319 311 302 300 303 304 304 304 305 306 306 303 299 296 292 289 288 286 284 281 279
125 177 226 279 275 274 273 266 255 243 233 235 257 270 280 152 116 88 14 18 333 302 299 299 299 299 299 299 301 304 304 305 308 305 302 300 299 297 293 291 288 286 283 281
162 155 160 270 311 336 278 256 228 224 225 215 236 251 181 92 111 275 259 270 286 286 286 290 292 291 292 295 299 304 302 306 307 303 301 301 299 297 293 292 290 287 286 283
155 151 159 242 359 251 246 239 217 238 265 227 173 128 139 228 260 259 211 235 270 278 283 288 291 293 295 299 305 304 304 306 305 303 301 299 297 295 294 292 289 288 286 284
162 149 150 163 234 278 292 292 219 194 268 61 115 81 308 293 327 297 246 254 266 276 280 281 284 290 299 304 306 308 308 306 304 302 300 300 298 297 297 294 293 292 291 290
88 133 145 158 194 243 253 269 302 75 263 298 112 338 309 4 337 283 279 293 290 292 291 292 297 303 307 308 311 311 310 308 306 303 300 299 296 296 297 296 295 294 291 291
120 137 173 182 215 258 258 277 90 199 259 250 310 295 289 257 246 265 288 288 286 289 293 299 304 306 305 307 311 309 308 305 302 301 300 299 297 296 297 296 296 297 296 294
173 171 185 163 196 252 262 135 148 215 247 278 282 270 268 263 270 281 286 288 295 300 303 307 308 307 306 306 308 308 307 303 302 301 301 300 298 299 302 299 299 298 297 297
197 191 184 189 209 224 98 121 111 137 214 250 254 267 269 274 280 285 286 293 297 299 301 304 305 307 307 304 301 303 305 306 306 304 303 302 301 299 299 299 301 303 301 299
251 152 161 228 260 203 134 129 134 202 219 241 254 265 268 275 282 290 294 297 301 301 305 307 310 311 311 309 300 296 302 306 306 306 307 306 305 304 302 298 298 299 299 298
230 155 176 248 273 330 169 170 248 275 281 286 289 275 281 289 293 293 296 299 300 303 303 304 304 304 305 307 305 303 304 306 307 306 307 307 304 303 303 300 296 295 288 290
207 191 198 234 227 216 267 290 323 318 308 299 302 306 307 297 292 297 298 297 300 303 305 305 302 301 305 308 308 308 307 306 307 310 309 308 305 304 304 305 304 297 296 300
Height
1538 1542 1544 1541 1540 1539 1539 1540 1542 1535 1526 1525 1524 1520 1511 1505 1504 1503 1501 1498 1495 1493 1491 1488 1487 1488 1489 1491 1494 1496 1498 1500 1502 1503 1504 1505 1505 1506 1507 1508 1510 1511 1512 1514
1542 1543 1535 1533 1534 1535 1536 1539 1538 1531 1525 1525 1523 1520 1512 1506 1506 1505 1503 1500 1497 1494 1492 1490 1489 1488 1488 1490 1492 1493 1495 1497 1498 1499 1500 1501 1502 1502 1503 1504 1504 1505 1505 1506
1541 1535 1529 1531 1532 1534 1534 1536 1535 1533 1529 1525 1525 1521 1515 1510 1507 1506 1504 1502 1499 1497 1494 1492 1490 1490 1489 1490 1490 1492 1493 1494 1495 1496 1498 1498 1498 1497 1497 1497 1497 1498 1498 1498
1536 1530 1529 1530 1531 1531 1537 1529 1529 1530 1534 1537 1533 1538 1522 1512 1510 1507 1505 1503 1501 1499 1496 1494 1493 1491 1490 1490 1490 1490 1491 1492 1493 1494 1494 1493 1492 1490 1490 1491 1491 1491 1491 1490
1533 1528 1528 1529 1528 1528 1529 1527 1528 1529 1532 1538 1535 1538 1526 1514 1512 1508 1506 1504 1502 1500 1498 1496 1494 1493 1491 1490 1490 1490 1490 1490 1490 1491 1490 1489 1488 1486 1486 1485 1484 1483 1483 1482
1529 1526 1525 1525 1525 1526 1526 1529 1531 1535 1540 1541 1531 1536 1527 1516 1508 1506 1505 1504 1503 1501 1500 1498 1496 1494 1493 1491 1490 1490 1489 1489 1488 1488 1487 1486 1484 1483 1481 1479 1477 1476 1475 1473
1529 1526 1523 1523 1526 1527 1529 1538 1545 1541 1547 1540 1529 1529 1523 1505 1500 1501 1503 1504 1503 1502 1501 1499 1497 1496 1494 1493 1492 1490 1489 1488 1487 1486 1484 1483 1481 1479 1476 1474 1472 1469 1467 1464
1534 1534 1524 1523 1524 1528 1529 1536 1547 1549 1551 1545 1531 1528 1514 1502 1498 1500 1502 1504 1504 1503 1502 1500 1499 1497 1495 1494 1492 1491 1489 1488 1486 1485 1483 1480 1478 1475 1472 1469 1466 1463 1460 1457
1533 1530 1522 1522 1523 1525 1528 1534 1535 1546 1546 1548 1539 1526 1511 1502 1502 1503 1504 1504 1504 1503 1502 1501 1499 1498 1496 1494 1492 1490 1488 1487 1484 1482 1480 1477 1474 1471 1467 1464 1460 1457 1453 1450
1522 1528 1524 1523 1524 1525 1527 1531 1541 1544 1549 1551 1542 1532 1519 1506 1505 1504 1504 1504 1503 1502 1502 1500 1499 1498 1496 1494 1492 1489 1487 1484 1482 1479 1476 1473 1469 1466 1462 1458 1454 1450 1446 1442
1519 1528 1528 1526 1527 1526 1530 1531 1534 1543 1547 1552 1549 1533 1508 1503 1502 1503 1502 1502 1501 1501 1501 1500 1498 1497 1495 1492 1490 1487 1484 1481 1478 1474 1471 1467 1464 1460 1455 1451 1446 1442 1437 1433
1520 1530 1534 1528 1522 1522 1524 1526 1533 1540 1541 1545 1548 1531 1501 1501 1499 1500 1500 1500 1500 1501 1500 1499 1497 1495 1493 1490 1487 1484 1481 1477 1473 1470 1466 1462 1457 1453 1448 1443 1438 1433 1428 1424
1520 1529 1536 1531 1529 1524 1522 1523 1526 1530 1537 1544 1545 1525 1501 1500 1499 1500 1500 1500 1499 1499 1498 1497 1495 1493 1490 1487 1483 1480 1476 1472 1468 1464 1459 1455 1450 1445 1440 1434 1429 1424 1419 1414
1517 1526 1532 1532 1528 1522 1522 1521 1522 1528 1536 1537 1529 1514 1503 1500 1499 1499 1499 1498 1498 1497 1496 1495 1492 1490 1487 1483 1479 1475 1471 1467 1463 1458 1453 1447 1442 1437 1431 1425 1420 1415 1410 1405
1517 1525 1525 1523 1521 1521 1520 1518 1518 1521 1521 1522 1513 1508 1499 1497 1497 1498 1497 1497 1496 1496 1494 1492 1489 1486 1483 1479 1475 1470 1466 1461 1456 1451 1445 1440 1434 1428 1422 1417 1411 1406 1401 1396
1518 1522 1523 1522 1518 1519 1517 1509 1509 1510 1510 1510 1506 1502 1496 1496 1496 1497 1496 1496 1495 1493 1491 1489 1486 1482 1478 1474 1469 1465 1460 1455 1450 1444 1438 1432 1425 1419 1413 1408 1402 1397 1392 1386
1519 1522 1526 1529 1523 1520 1517 1502 1502 1502 1501 1502 1503 1500 1496 1496 1496 1495 1495 1493 1492 1490 1488 1485 1481 1478 1473 1469 1464 1459 1454 1448 1442 1436 1430 1423 1417 1410 1405 1399 1394 1388 1382 1377
1516 1521 1527 1531 1526 1527 1504 1495 1495 1497 1496 1496 1496 1496 1496 1496 1495 1494 1492 1491 1489 1487 1484 1480 1477 1473 1469 1464 1459 1453 1448 1441 1435 1428 1422 1415 1409 1402 1396 1391 1385 1379 1374 1368
1508 1515 1526 1532 1529 1521 1503 1494 1492 1494 1495 1495 1495 1495 1495 1494 1492 1491 1490 1488 1486 1483 1479 1476 1472 1468 1463 1458 1453 1446 1440 1434 1427 1420 1414 1408 1401 1395 1388 1382 1376 1371 1365 1359
1509 1511 1522 1530 1528 1522 1500 1492 1490 1494 1497 1496 1494 1494 1493 1492 1494 1490 1487 1485 1482 1479 1475 1471 1467 1463 1458 1452 1446 1439 1432 1426 1419 1413 1406 1400 1394 1388 1381 1374 1368 1363 1357 1351
1512 1516 1520 1524 1524 1511 1494 1490 1490 1499 1499 1495 1493 1492 1492 1491 1490 1487 1483 1480 1477 1474 1471 1466 1462 1457 1452 1446 1439 1432 1425 1419 1412 1405 1399 1392 1387 1380 1374 1367 1361 1355 1349 1343
1504 1513 1517 1521 1523 1510 1490 1489 1493 1495 1492 1492 1491 1490 1489 1487 1484 1482 1479 1476 1473 1469 1465 1461 1456 1451 1446 1440 1433 1425 1418 1412 1405 1398 1391 1384 1378 1372 1366 1360 1353 1347 1341 1334
1495 1495 1498 1500 1497 1490 1488 1489 1491 1491 1491 1490 1489 1487 1485 1482 1480 1477 1474 1471 1468 1464 1460 1455 1450 1444 1439 1433 1427 1419 1411 1404 1397 1390 1383 1376 1370 1364 1358 1352 1346 1339 1334 1328
1489 1488 1491 1493 1488 1487 1488 1488 1489 1489 1488 1486 1485 1483 1481 1478 1475 1473 1470 1466 1463 1459 1454 1449 1444 1437 1431 1426 1420 1413 1405 1397 1389 1382 1375 1368 1362 1356 1350 1345 1339 1333 1327 1321
1485 1486 1488 1488 1486 1486 1486 1486 1486 1485 1483 1482 1480 1479 1477 1474 1471 1469 1465 1462 1458 1453 1449 1444 1438 1431 1424 1418 1411 1405 1398 1390 1382 1375 1368 1361 1355 1349 1342 1337 1333 1327 1321 1317
1482 1483 1486 1485 1483 1484 1484 1483 1482 1481 1480 1478 1477 1475 1473 1471 1468 1465 1461 1457 1453 1448 1443 1437 1431 1425 1417 1411 1404 1397 1390 1383 1376 1368 1361 1354 1348 1342 1336 1330 1324 1319 1315 1310